W5CGC Weather Reports


time (UTC)temp
C
wind
direction
speed
KPH
gust
KPH
rain 1hr
cm
rain 24hr
cm
rain mn
cm
humidity
%
barometer
mb
20260507124537 11 0 0.0 1.6 0.00 0.18 0.00 72 1020.0
20260507123036 11 0 0.0 0.0 0.00 0.18 0.00 73 1019.8
20260507121535 10 0 0.0 0.0 0.00 0.18 0.00 71 1019.9
20260507120034 10 0 0.0 0.0 0.00 0.18 0.00 71 1019.5
20260507114532 10 0 0.0 0.0 0.00 0.18 0.00 70 1019.5
20260507113038 10 0 0.0 0.0 0.00 0.18 0.00 70 1019.3
20260507111541 10 0 0.0 1.6 0.00 0.18 0.00 70 1019.6
20260507110037 11 0 0.0 0.0 0.00 0.18 0.00 69 1019.5
20260507104534 11 0 0.0 0.0 0.00 0.18 0.00 68 1019.1
20260507103037 11 0 0.0 0.0 0.00 0.18 0.00 68 1018.9
20260507101544 11 0 0.0 1.6 0.00 0.18 0.00 69 1018.4
20260507100040 11 0 0.0 0.0 0.00 0.18 0.00 69 1018.4
20260507094544 12 133 0.0 1.6 0.00 0.18 0.00 68 1018.2
20260507093042 12 0 0.0 1.6 0.00 0.18 0.00 68 1017.8
20260507091536 12 0 0.0 1.6 0.00 0.18 0.00 67 1017.7
20260507090036 12 0 0.0 1.6 0.00 0.18 0.00 67 1017.6
20260507084536 12 0 0.0 1.6 0.00 0.18 0.00 66 1017.8
20260507083035 12 0 0.0 1.6 0.00 0.18 0.00 66 1017.8
20260507081539 12 0 0.0 1.6 0.00 0.18 0.00 65 1017.9
20260507080040 12 0 0.0 4.8 0.00 0.18 0.00 64 1017.7
20260507074535 12 0 0.0 3.2 0.00 0.18 0.00 64 1017.5
20260507073039 13 0 0.0 4.8 0.00 0.18 0.00 63 1017.4
20260507071535 13 125 0.0 1.6 0.00 0.18 0.00 63 1017.3
20260507070034 13 126 0.0 3.2 0.00 0.18 0.00 63 1017.2
20260507064533 13 0 0.0 1.6 0.00 0.18 0.00 63 1017.2
20260507063045 13 0 0.0 1.6 0.00 0.18 0.00 62 1017.2
20260507061535 13 0 0.0 1.6 0.00 0.18 0.00 62 1017.1
20260507060048 13 0 0.0 0.0 0.00 0.18 0.00 61 1016.9
20260507054546 14 0 0.0 1.6 0.00 0.18 0.00 61 1016.9
20260507053031 14 0 0.0 4.8 0.00 0.18 0.00 60 1016.7
20260507051531 14 134 0.0 1.6 0.00 0.18 0.00 60 1016.6
20260507050038 14 0 1.6 4.8 0.00 0.18 0.00 59 1016.8
20260507044548 14 0 0.0 4.8 0.00 0.18 0.18 58 1016.8
20260507043032 15 0 0.0 6.4 0.00 0.18 0.18 57 1017.0
20260507041532 15 0 0.0 3.2 0.00 0.18 0.18 56 1017.1
20260507040034 15 172 0.0 6.4 0.00 0.18 0.18 56 1017.3
20260507034535 15 84 0.0 6.4 0.00 0.18 0.18 56 1017.2
20260507033033 15 131 0.0 4.8 0.00 0.18 0.18 56 1017.3
20260507031532 15 143 1.6 11.3 0.00 0.18 0.18 56 1017.1
20260507030034 15 152 3.2 11.3 0.00 0.18 0.18 55 1017.1
20260507024539 16 138 1.6 8.0 0.00 0.18 0.18 55 1016.5
20260507023031 16 161 1.6 8.0 0.00 0.18 0.18 56 1016.3
20260507021537 16 124 1.6 8.0 0.00 0.18 0.18 56 1015.9
20260507020042 16 155 0.0 4.8 0.00 0.18 0.18 57 1015.8
20260507014538 16 101 0.0 3.2 0.00 0.18 0.18 56 1015.4
20260507013045 16 136 1.6 8.0 0.00 0.18 0.18 56 1015.1
20260507011541 16 0 1.6 4.8 0.00 0.18 0.18 56 1014.5
20260507010043 16 105 0.0 8.0 0.00 0.18 0.18 56 1014.3
20260507004536 16 155 1.6 6.4 0.00 0.18 0.18 55 1014.3
20260507003033 17 0 0.0 6.4 0.00 0.18 0.18 55 1014.3
20260507001538 17 178 1.6 6.4 0.00 0.18 0.18 56 1014.1
20260507000035 17 165 1.6 4.8 0.00 0.18 0.18 55 1013.8
20260506234541 17 120 1.6 6.4 0.00 0.18 0.18 54 1013.7
20260506233038 18 179 0.0 4.8 0.00 0.18 0.18 55 1013.6
20260506231540 18 75 0.0 4.8 0.00 0.18 0.18 53 1013.4
20260506230035 18 146 0.0 11.3 0.00 0.18 0.18 51 1013.4
20260506224537 19 154 1.6 3.2 0.00 0.18 0.18 52 1013.3
20260506223032 19 138 1.6 6.4 0.00 0.18 0.18 51 1013.2
20260506221539 18 147 1.6 9.7 0.00 0.18 0.18 53 1013.1
20260506220038 18 150 1.6 4.8 0.00 0.18 0.18 53 1013.3
20260506214542 17 0 1.6 6.4 0.00 0.18 0.18 53 1013.4
20260506213041 17 138 0.0 4.8 0.00 0.18 0.18 56 1013.1
20260506211535 17 0 0.0 3.2 0.00 0.18 0.18 56 1013.5
20260506210037 17 153 0.0 4.8 0.00 0.18 0.18 55 1013.5
20260506204534 17 187 0.0 4.8 0.00 0.18 0.18 55 1013.5
20260506203040 17 0 1.6 4.8 0.00 0.18 0.18 55 1013.8
20260506201538 16 0 0.0 6.4 0.00 0.18 0.18 55 1014.1
20260506200037 16 0 0.0 4.8 0.00 0.18 0.18 56 1014.1
20260506194543 15 158 0.0 4.8 0.00 0.18 0.18 57 1014.4
20260506193034 15 109 0.0 1.6 0.00 0.18 0.18 57 1014.8
20260506191539 15 0 0.0 3.2 0.00 0.18 0.18 58 1014.6
20260506190039 15 113 0.0 4.8 0.00 0.18 0.18 57 1014.8
20260506184537 15 151 0.0 8.0 0.00 0.18 0.18 57 1014.8
20260506183034 15 121 1.6 4.8 0.00 0.18 0.18 57 1013.4
20260506181535 15 182 1.6 6.4 0.00 0.18 0.18 60 1013.5
20260506180043 14 0 1.6 8.0 0.00 0.18 0.18 60 1014.2
20260506174536 13 0 0.0 3.2 0.00 0.18 0.18 65 1014.0
20260506173041 12 141 0.0 11.3 0.00 0.18 0.18 66 1014.3
20260506171551 12 136 0.0 8.0 0.00 0.18 0.18 66 1013.9
20260506170039 12 0 0.0 9.7 0.00 0.18 0.18 68 1014.3
20260506164534 12 0 0.0 4.8 0.00 0.18 0.18 68 1014.6
20260506163041 12 0 0.0 3.2 0.00 0.18 0.18 68 1014.8
20260506161538 12 0 0.0 9.7 0.15 0.18 0.18 68 1014.8
20260506160039 12 169 0.0 6.4 0.18 0.18 0.18 70 1013.7
20260506154539 12 0 0.0 1.6 0.18 0.18 0.18 70 1014.5
20260506153034 11 0 0.0 6.4 0.15 0.15 0.15 69 1014.7
20260506151537 12 0 0.0 1.6 0.03 0.03 0.03 65 1015.9
20260506150039 12 0 0.0 0.0 0.00 0.00 0.00 64 1015.9
20260506144546 12 172 0.0 6.4 0.00 0.00 0.00 65 1015.4
20260506143038 12 0 1.6 6.4 0.00 0.00 0.00 63 1013.8
20260506141534 12 0 0.0 8.0 0.00 0.00 0.00 63 1015.2
20260506140037 12 108 1.6 6.4 0.00 0.00 0.00 63 1014.5
20260506134539 12 0 0.0 8.0 0.00 0.00 0.00 64 1013.9
20260506133045 11 134 0.0 6.4 0.00 0.00 0.00 63 1013.4
20260506131538 11 0 0.0 6.4 0.00 0.00 0.00 63 1013.7
20260506130037 11 92 0.0 8.0 0.00 0.00 0.00 64 1013.3